Hourly Data Report for July 05, 2021

MANIWAKI AIRPORT
QUEBEC
Current Station Operator: ECCC - MSC

46°16'29.000" N
75°59'31.000" W
199.70 m
7034482
71721
WMJ

Download Data

Hourly Data (July 2021)
Hourly Data Report for July 5, 2021
TIME
LST
Temp Definition
°C
Dew Point Definition
°C
Rel Hum Definition
%
Precip. Amount Definition
mm

Wind Dir Definition
10's deg

Wind Spd Definition
km/h
Visibility Definition
km
Stn Press Definition
kPa
Hmdx Definition


Wind Chill Definition


Weather Definition


00:00 12.2 11.7 97 0.0 22 4   99.10     LegendNANA
01:00 12.0 10.6 91 0.0 17 6   99.12     LegendNANA
02:00 11.8 11.4 97 0.0 14 3   99.12     LegendNANA
03:00 11.6 11.4 99 0.0 21 2   99.12     LegendNANA
04:00 12.4 12.1 98 0.0 20 5   99.11     LegendNANA
05:00 13.9 13.4 97 0.0 18 2   99.15     LegendNANA
06:00 15.7 13.1 84 0.0 19 8   99.13     LegendNANA
07:00 18.2 13.7 75 0.0 18 8   99.15     LegendNANA
08:00 20.2 13.5 65 0.0 18 12   99.14     LegendNANA
09:00 21.0 12.5 58 0.0 19 19   99.09     LegendNANA
10:00 22.1 13.3 58 0.0 18 17   99.09 25   LegendNANA
11:00 23.3 13.0 52 0.0 19 20   99.07 26   LegendNANA
12:00 24.7 13.7 50 0.0 16 17   98.98 28   LegendNANA
13:00 25.2 14.0 50 0.0 16 17   98.89 29   LegendNANA
14:00 24.7 14.0 51 0.0 18 18   98.87 28   LegendNANA
15:00 25.9 15.3 52 0.0 19 16   98.82 30   LegendNANA
16:00 25.3 14.5 51 0.0 19 22   98.76 29   LegendNANA
17:00 26.0 15.4 52 0.0 18 19   98.63 30   LegendNANA
18:00 25.5 15.5 54 0.0 17 13   98.60 30   LegendNANA
19:00 24.1 15.3 58 0.0 18 12   98.60 28   LegendNANA
20:00 21.9 15.3 66 0.0 20 8   98.60 26   LegendNANA
21:00 22.3 16.6 70 0.0 20 11   98.61 27   LegendNANA
22:00 21.0 16.9 77 0.0 18 8   98.55 26   LegendNANA
23:00 20.2 17.1 82 0.0 20 8   98.49 26   LegendNANA

Notes on Data Quality.

Legend

  • E = Estimated
  • M = Missing
  • NA = Not Available*
  • [empty] = Indicates an unobserved value
Date modified: